Location: Unspecified
(0.0000°N, 0.0000°E)
Time: 12:05:14
(UTC+02:00)

Amateur Radio Satellites - All Passes

Search period start: 30 September 2016 11:35
Search period end: 01 October 2016 11:35
Location: Unspecified, 0.0000°N, 0.0000°E

Satellite Date Start Highest point End Downlink Frequencies (MHz)
Time Altitude Azimuth
Oscar 11 30 Sep 11:43:48 11:46:27 16° 282° (WNW) 11:49:07 145.826/435.025
HUMSAT D 30 Sep 11:47:46 11:52:04 77° 102° (ESE) 11:56:22 437.325/437.525
ZACube-1 30 Sep 11:50:58 11:53:02 13° 281° (WNW) 11:55:08 437.345
SRMSAT 30 Sep 11:55:25 11:56:43 11° 185° (S) 11:58:01 437.500
BEESAT 3 30 Sep 11:56:28 12:00:15 46° 68° (ENE) 12:04:02 437.485
ANTELSAT 30 Sep 12:03:56 12:08:18 71° 258° (WSW) 12:12:33 437.575/2403.000
TIGRISAT 30 Sep 12:24:02 12:28:06 38° 258° (WSW) 12:32:05 435.000
POPSAT HIP 1 30 Sep 12:27:46 12:30:20 16° 78° (ENE) 12:32:52 437.405
NANOSAT C BR1 30 Sep 12:41:28 12:44:52 24° 78° (ENE) 12:48:13 145.865
JUGNU 30 Sep 12:43:36 12:47:09 16° 167° (SSE) 12:50:43 437.505
CUBEBUG 1 30 Sep 12:54:32 12:58:19 30° 102° (ESE) 13:02:06 437.445
BEESAT 2 30 Sep 12:57:01 13:00:54 53° 249° (WSW) 13:04:47 435.950
VELOX 1 30 Sep 12:57:12 13:00:42 24° 102° (ESE) 13:04:13 145.980
QB50P2 30 Sep 13:06:29 13:10:42 69° 78° (ENE) 13:14:53 145.880/145.840
ESTCUBE 1 30 Sep 13:07:41 13:12:11 90° 263° (W) 13:16:42 437.505/2401.250
POLYITAN 1 30 Sep 13:08:41 13:12:53 69° 79° (E) 13:17:04 437.675
JAS-2 30 Sep 13:09:16 13:14:40 43° 76° (ENE) 13:20:44 435.910
SPROUT 30 Sep 13:23:39 13:27:12 26° 102° (ESE) 13:30:45 437.525
50 SAT 30 Sep 13:28:43 13:32:19 70° 101° (ESE) 13:35:54 437.505
BUGSAT 1 30 Sep 13:35:04 13:39:01 41° 78° (ENE) 13:42:53 437.445
AUBIESAT-1 30 Sep 13:38:25 13:41:41 38° 106° (ESE) 13:45:10 437.475
UKube-1 30 Sep 13:42:29 13:46:30 40° 102° (ESE) 13:50:32 .
DUCHIFAT 1 30 Sep 13:43:06 13:47:07 42° 258° (WSW) 13:51:04 145.980
SRMSAT 30 Sep 13:45:35 13:47:08 11° 174° (S) 13:48:40 437.500
QB50P1 30 Sep 13:48:21 13:52:05 30° 258° (WSW) 13:55:46 145.935-145.965
AISAT 30 Sep 13:49:19 13:53:34 54° 282° (WNW) 13:57:51 437.250
POPSAT HIP 1 30 Sep 14:02:45 14:05:51 20° 258° (WSW) 14:08:54 437.405
AIST 2 30 Sep 14:05:13 14:07:21 14° 68° (ENE) 14:09:27 435.215
SO-50 30 Sep 14:13:47 14:18:29 52° 112° (ESE) 14:23:10 436.795
Oscar 19 30 Sep 14:14:43 14:18:21 19° 77° (ENE) 14:21:58 437.125/150
DX 1 30 Sep 14:15:58 14:20:03 43° 282° (WNW) 14:24:11 434.975-435.025
M-CUBED/EXP-1 PRIME 30 Sep 14:18:16 14:21:16 29° 284° (WNW) 14:24:27 437.505
NANOSAT C BR1 30 Sep 14:18:22 14:20:18 13° 258° (WSW) 14:22:14 145.865
YUBILEINY 30 Sep 14:22:10 14:25:39 13° 87° (E) 14:29:08 435.215
JUGNU 30 Sep 14:31:14 14:36:39 36° 160° (SSE) 14:42:06 437.505
CUBEBUG 1 30 Sep 14:33:45 14:34:19 10° 282° (WNW) 14:34:55 437.445
TISAT 1 30 Sep 14:34:27 14:38:11 32° 102° (ESE) 14:41:57 437.305
VELOX 1 30 Sep 14:34:33 14:36:54 14° 282° (WNW) 14:39:15 145.980
PCSat 30 Sep 14:44:29 14:45:38 11° 70° (ENE) 14:46:47 145.827
JAS-2 30 Sep 14:56:48 14:59:40 14° 260° (W) 15:02:41 435.910
SPROUT 30 Sep 15:01:08 15:02:52 12° 282° (WNW) 15:04:35 437.525
Cosmos 2504 30 Sep 15:30:29 15:34:46 15° 89° (E) 15:39:09 435.465 / 435.565
Gurwin Techsat 1B 30 Sep 15:31:43 15:36:59 66° 77° (ENE) 15:42:14 435.225
SRMSAT 30 Sep 15:33:02 15:37:14 19° 165° (SSE) 15:41:27 437.500
AIST 2 30 Sep 15:42:14 15:45:33 23° 248° (WSW) 15:48:53 435.215
Cosmos 2491 30 Sep 15:42:27 15:51:13 81° 93° (E) 15:59:59 435.465 / 435.565
Oscar 19 30 Sep 15:53:07 15:57:23 26° 257° (WSW) 16:01:40 437.125/150
ITUPSAT 1 30 Sep 16:08:13 16:13:00 76° 102° (ESE) 16:17:49 437.325
YUBILEINY 30 Sep 16:13:26 16:22:01 69° 267° (W) 16:30:42 435.215
JUGNU 30 Sep 16:19:46 16:25:47 85° 339° (NNW) 16:31:48 437.505
SWISSCUBE 30 Sep 16:19:52 16:24:35 63° 283° (WNW) 16:29:21 437.505
PCSat 30 Sep 16:23:37 16:28:47 48° 251° (WSW) 16:33:58 145.827
BEESAT 30 Sep 16:32:39 16:37:15 49° 282° (WNW) 16:41:53 436.000
ITAMSAT 1 30 Sep 16:51:16 16:56:25 71° 258° (WSW) 17:01:33 435.822/435.867
AO-7 30 Sep 16:51:58 17:00:00 52° 74° (ENE) 17:07:58 29.400- 29.500
AIST 1 30 Sep 17:15:37 17:18:43 20° 86° (E) 17:21:48
Cosmos 2504 30 Sep 17:19:40 17:27:34 61° 266° (W) 17:36:03 435.465 / 435.565
SRMSAT 30 Sep 17:21:04 17:26:48 45° 160° (SSE) 17:32:30 437.500
MOZHAYETS 4 30 Sep 17:35:02 17:39:38 67° 282° (WNW) 17:44:15
KKS-1 30 Sep 17:40:42 17:45:06 81° 102° (ESE) 17:49:34 437.445
RS-15 30 Sep 17:48:10 17:53:30 14° 113° (ESE) 17:58:53 29.354- 29.394
STARS 30 Sep 18:06:49 18:11:11 72° 102° (ESE) 18:15:34 437.465
JUGNU 30 Sep 18:09:39 18:14:56 32° 341° (NNW) 18:20:13 437.505
ISS 30 Sep 18:36:41 18:39:27 26° 305° (NW) 18:42:13 145.825
AO-7 30 Sep 18:46:36 18:52:22 21° 253° (WSW) 18:58:08 29.400- 29.500
BRITE-PL 30 Sep 18:47:24 18:52:40 44° 78° (ENE) 18:58:02 437.365/2234.400
NOAA 15 30 Sep 18:47:32 18:50:17 14° 77° (ENE) 18:53:00 137.62
AIST 1 30 Sep 18:53:47 18:56:01 14° 266° (W) 18:58:15
PHONESAT 2.4 30 Sep 18:56:23 18:59:13 46° 43° (NE) 19:02:05 2401.200-2431.200
CUBESAT XI-V 30 Sep 19:02:17 19:06:50 60° 282° (WNW) 19:11:24 437.345
SRMSAT 30 Sep 19:10:05 19:16:01 66° 338° (NNW) 19:21:57 437.500
CUTE-I 30 Sep 19:11:41 19:15:44 22° 77° (ENE) 19:19:46 437.470
Cubesat XI-IV 30 Sep 19:12:25 19:16:30 22° 77° (ENE) 19:20:33 437.490
HORYU 2 30 Sep 19:13:39 19:17:50 42° 258° (WSW) 19:22:00 437.375
O/OREOS (USA 219) 30 Sep 19:29:04 19:33:24 44° 256° (WSW) 19:37:43 437.305
AO-85 30 Sep 19:54:01 19:59:11 48° 112° (ESE) 20:04:18 145.980
RS-15 30 Sep 19:54:25 20:05:29 80° 291° (WNW) 20:17:08 29.354- 29.394
GOMX 1 30 Sep 20:00:28 20:05:57 69° 258° (WSW) 20:11:21 467.674
JUGNU 30 Sep 20:01:15 20:04:31 15° 348° (NNW) 20:07:47 437.505
CUSAT 1 30 Sep 20:06:40 20:11:18 57° 277° (W) 20:17:23 437.405
DOVE 4 30 Sep 20:08:06 20:13:14 54° 79° (E) 20:18:10 437.250
LilacSat-2 30 Sep 20:11:09 20:14:46 45° 259° (W) 20:18:21 437.200
NOAA 18 30 Sep 20:15:03 20:20:35 85° 258° (WSW) 20:26:03 137.9125
DANDE 30 Sep 20:23:56 20:27:31 51° 92° (E) 20:32:13 436.750
Cosmos 2499 30 Sep 20:24:14 20:29:54 20° 88° (E) 20:35:44 435.465 / 435.565
NOAA 15 30 Sep 20:24:57 20:29:46 36° 257° (WSW) 20:34:35 137.62
BRITE-PL 30 Sep 20:28:08 20:30:51 14° 258° (WSW) 20:33:36 437.365/2234.400
CANX-2 30 Sep 20:32:18 20:33:58 12° 78° (ENE) 20:35:39 2200.000
GONETS M04 30 Sep 20:37:30 20:44:57 32° 87° (E) 20:52:20
HO-68 30 Sep 20:41:18 20:47:09 27° 75° (ENE) 20:52:57 435.675
CUTE-I 30 Sep 20:51:21 20:55:30 23° 257° (WSW) 20:59:38 437.470
Cubesat XI-IV 30 Sep 20:52:09 20:56:17 23° 257° (WSW) 21:00:25 437.490
CINEMA 3 30 Sep 20:59:59 21:04:33 46° 79° (E) 21:08:52 145.822/145.860
SRMSAT 30 Sep 21:00:34 21:05:23 25° 342° (NNW) 21:10:14 437.500
STRAND 1 30 Sep 21:13:08 21:18:13 63° 282° (WNW) 21:23:19 437.568
COMPASS 1 30 Sep 21:26:18 21:29:40 24° 78° (ENE) 21:33:02 437.405
AO-85 30 Sep 21:37:34 21:39:27 12° 292° (WNW) 21:41:19 145.980
CUBEBUG 2 30 Sep 21:48:30 21:52:32 37° 79° (E) 21:56:27 437.445
SEEDS 30 Sep 21:59:35 22:03:42 60° 258° (WSW) 22:07:49 437.485
UWE-3 30 Sep 22:00:37 22:04:25 31° 79° (E) 22:08:07 435.000/436.395/437.385
CUTE 1.7 + AOD 2 30 Sep 22:03:57 22:07:42 32° 258° (WSW) 22:11:28 437.475
CANX-2 30 Sep 22:06:06 22:09:34 25° 259° (WSW) 22:13:02 2200.000
AAUSAT CUBESAT 2 30 Sep 22:13:35 22:17:44 87° 258° (WSW) 22:21:53 437.432
Cosmos 2499 30 Sep 22:14:35 22:22:30 51° 267° (W) 22:30:56 435.465 / 435.565
Oscar 11 30 Sep 22:15:40 22:19:18 27° 78° (ENE) 22:22:57 145.826/435.025
PRISM 30 Sep 22:21:44 22:25:43 54° 102° (ESE) 22:29:41 437.425
ZACube-1 30 Sep 22:23:12 22:27:04 36° 79° (E) 22:30:53 437.345
HO-68 30 Sep 22:28:16 22:34:32 33° 255° (WSW) 22:40:48 435.675
GONETS M04 30 Sep 22:33:54 22:41:21 32° 267° (W) 22:48:50
SRMSAT 30 Sep 22:52:50 22:55:16 12° 350° (N) 22:57:42 437.500
TIGRISAT 30 Sep 23:02:01 23:04:26 14° 103° (ESE) 23:06:53 435.000
COMPASS 1 30 Sep 23:03:14 23:04:57 12° 258° (WSW) 23:06:39 437.405
DELFI C3 30 Sep 23:08:29 23:12:19 48° 79° (ENE) 23:16:10 145.870
FUNcube-1 30 Sep 23:15:28 23:19:23 38° 258° (WSW) 23:23:13 145.935
UNISAT 6 30 Sep 23:41:28 23:45:57 56° 102° (ESE) 23:50:33 437.425
JUGNU 30 Sep 23:42:33 23:44:49 12° 9° (N) 23:47:04 437.505
BEESAT 3 30 Sep 23:48:45 23:52:27 46° 112° (ESE) 23:56:10 437.485
HUMSAT D 30 Sep 23:52:46 23:56:52 89° 294° (WNW) 00:00:55 437.325/437.525
Oscar 11 30 Sep 23:53:39 23:55:10 12° 258° (WSW) 23:56:39 145.826/435.025
ANTELSAT 01 Oct 00:16:48 00:21:11 47° 282° (WNW) 00:25:41 437.575/2403.000
QB50P1 01 Oct 00:20:44 00:22:33 13° 102° (ESE) 00:24:22 145.935-145.965
POPSAT HIP 1 01 Oct 00:33:20 00:36:22 19° 102° (ESE) 00:39:25 437.405
TIGRISAT 01 Oct 00:36:57 00:40:49 27° 281° (WNW) 00:44:46 435.000
JAS-2 01 Oct 00:43:22 00:49:13 27° 101° (E) 00:54:33 435.910
NANOSAT C BR1 01 Oct 00:46:50 00:50:28 28° 102° (ESE) 00:54:09 145.865
BEESAT 2 01 Oct 00:50:30 00:54:16 49° 291° (WNW) 00:58:04 435.950
DX 1 01 Oct 00:53:10 00:53:49 10° 78° (ENE) 00:54:27 434.975-435.025
CUBEBUG 1 01 Oct 01:04:13 01:08:27 43° 78° (ENE) 01:12:38 437.445
VELOX 1 01 Oct 01:08:17 01:12:21 35° 78° (ENE) 01:16:23 145.980
QB50P2 01 Oct 01:12:38 01:16:52 86° 100° (E) 01:21:09 145.880/145.840
POLYITAN 1 01 Oct 01:14:47 01:19:02 86° 102° (ESE) 01:23:20 437.675
50 SAT 01 Oct 01:17:23 01:20:49 42° 78° (ENE) 01:24:14 437.505
ESTCUBE 1 01 Oct 01:21:51 01:26:16 56° 258° (WSW) 01:30:42 437.505/2401.250
JUGNU 01 Oct 01:29:53 01:34:34 24° 17° (NNE) 01:39:12 437.505
SPROUT 01 Oct 01:30:45 01:34:36 33° 79° (ENE) 01:38:26 437.525
AUBIESAT-1 01 Oct 01:37:28 01:41:40 42° 75° (ENE) 01:45:35 437.475
BUGSAT 1 01 Oct 01:37:57 01:41:50 44° 102° (ESE) 01:45:47 437.445
DUCHIFAT 1 01 Oct 01:48:34 01:52:25 35° 282° (WNW) 01:56:18 145.980
UKube-1 01 Oct 01:50:49 01:55:03 54° 78° (ENE) 01:59:16 .
QB50P1 01 Oct 01:54:34 01:58:03 25° 282° (WNW) 02:01:32 145.935-145.965
AISAT 01 Oct 02:01:10 02:05:17 37° 258° (WSW) 02:09:24 437.250
AIST 2 01 Oct 02:03:05 02:05:37 16° 112° (ESE) 02:08:09 435.215
POPSAT HIP 1 01 Oct 02:09:12 02:11:53 16° 282° (WNW) 02:14:34 437.405
M-CUBED/EXP-1 PRIME 01 Oct 02:17:30 02:21:42 37° 254° (WSW) 02:25:39 437.505
Cosmos 2491 01 Oct 02:23:05 02:28:34 18° 87° (E) 02:33:59 435.465 / 435.565
NANOSAT C BR1 01 Oct 02:25:00 02:25:56 11° 282° (WNW) 02:26:53 145.865
DX 1 01 Oct 02:25:49 02:29:44 32° 258° (WSW) 02:33:38 434.975-435.025
SO-50 01 Oct 02:26:46 02:31:10 85° 249° (WSW) 02:35:34 436.795
JAS-2 01 Oct 02:27:40 02:33:57 32° 285° (WNW) 02:39:43 435.910
SRMSAT 01 Oct 02:32:52 02:35:51 14° 11° (NNE) 02:38:50 437.500
Gurwin Techsat 1B 01 Oct 02:33:51 02:35:45 12° 103° (ESE) 02:37:39 435.225
TISAT 1 01 Oct 02:39:36 02:43:31 38° 79° (ENE) 02:47:25 437.305
Oscar 19 01 Oct 02:47:03 02:51:58 49° 103° (ESE) 02:56:53 437.125/150
YUBILEINY 01 Oct 02:51:57 02:59:18 30° 93° (E) 03:06:35 435.215
SWISSCUBE 01 Oct 03:07:01 03:09:03 13° 77° (ENE) 03:11:05 437.505
PCSat 01 Oct 03:17:00 03:21:52 34° 109° (ESE) 03:26:43 145.827
JUGNU 01 Oct 03:17:58 03:23:47 61° 21° (NNE) 03:29:33 437.505
BEESAT 01 Oct 03:18:44 03:21:40 16° 77° (ENE) 03:24:35 436.000
AIST 2 01 Oct 03:41:01 03:43:50 18° 292° (WNW) 03:46:39 435.215
Cosmos 2504 01 Oct 03:41:58 03:47:17 20° 95° (E) 03:52:22 435.465 / 435.565
ITAMSAT 1 01 Oct 03:48:30 03:52:09 19° 103° (ESE) 03:55:47 435.822/435.867
Gurwin Techsat 1B 01 Oct 04:10:24 04:15:23 42° 283° (WNW) 04:20:25 435.225
Cosmos 2491 01 Oct 04:16:31 04:25:00 54° 267° (W) 04:33:29 435.465 / 435.565
SRMSAT 01 Oct 04:20:29 04:25:36 30° 19° (NNE) 04:30:44 437.500
ITUPSAT 1 01 Oct 04:30:41 04:35:19 54° 258° (WSW) 04:39:57 437.325
SWISSCUBE 01 Oct 04:42:22 04:46:34 32° 258° (WSW) 04:50:46 437.505
YUBILEINY 01 Oct 04:47:55 04:55:41 35° 273° (W) 05:03:27 435.215
BEESAT 01 Oct 04:55:18 04:59:10 25° 257° (WSW) 05:03:03 436.000
PCSat 01 Oct 05:01:55 05:04:59 15° 290° (WNW) 05:08:04 145.827
JUGNU 01 Oct 05:07:11 05:12:48 48° 201° (SSW) 05:18:26 437.505
AO-7 01 Oct 05:17:56 05:26:14 82° 106° (ESE) 05:34:35 29.400- 29.500
AIST 1 01 Oct 05:21:32 05:25:21 29° 94° (E) 05:29:09
ITAMSAT 1 01 Oct 05:27:01 05:31:19 27° 283° (WNW) 05:35:40 435.822/435.867
RS-15 01 Oct 05:31:51 05:36:12 12° 65° (ENE) 05:40:28 29.354- 29.394
Cosmos 2504 01 Oct 05:33:04 05:40:23 42° 272° (W) 05:47:16 435.465 / 435.565
CUBESAT XI-V 01 Oct 05:46:27 05:47:59 11° 78° (ENE) 05:49:31 437.345
HORYU 2 01 Oct 05:52:00 05:53:52 12° 103° (ESE) 05:55:44 437.375
MOZHAYETS 4 01 Oct 05:52:08 05:56:20 38° 258° (WSW) 06:00:34
KKS-1 01 Oct 05:53:13 05:57:40 67° 257° (WSW) 06:02:05 437.445
O/OREOS (USA 219) 01 Oct 06:03:07 06:05:14 13° 105° (ESE) 06:07:19 437.305
SRMSAT 01 Oct 06:08:57 06:14:53 81° 21° (NNE) 06:20:52 437.500
ISS 01 Oct 06:10:10 06:13:20 45° 235° (SW) 06:16:31 145.825
STARS 01 Oct 06:17:43 06:22:09 79° 258° (WSW) 06:26:31 437.465
PHONESAT 2.4 01 Oct 06:21:07 06:23:29 22° 137° (SE) 06:25:50 2401.200-2431.200
JUGNU 01 Oct 06:57:59 07:02:07 20° 195° (SSW) 07:06:17 437.505
AIST 1 01 Oct 07:02:04 07:02:39 10° 274° (W) 07:03:14
CUSAT 1 01 Oct 07:06:46 07:11:37 28° 80° (E) 07:15:29 437.405
BRITE-PL 01 Oct 07:15:18 07:19:32 89° 111° (ESE) 07:23:41 437.365/2234.400
AO-7 01 Oct 07:16:47 07:18:32 11° 288° (WNW) 07:20:17 29.400- 29.500
NOAA 18 01 Oct 07:20:21 07:24:28 22° 104° (ESE) 07:28:36 137.9125
CUBESAT XI-V 01 Oct 07:20:53 07:25:05 33° 258° (WSW) 07:29:18 437.345
NOAA 15 01 Oct 07:22:42 07:27:35 40° 103° (ESE) 07:32:27 137.62
HORYU 2 01 Oct 07:26:17 07:30:08 29° 282° (WNW) 07:34:01 437.375
DANDE 01 Oct 07:27:38 07:32:31 19° 80° (E) 07:36:44 436.750
RS-15 01 Oct 07:36:37 07:48:46 88° 69° (ENE) 08:00:20 29.354- 29.394
O/OREOS (USA 219) 01 Oct 07:40:35 07:44:20 26° 284° (WNW) 07:48:07 437.305
CUTE-I 01 Oct 07:49:39 07:54:58 66° 103° (ESE) 08:00:19 437.470
Cubesat XI-IV 01 Oct 07:50:36 07:55:55 67° 103° (ESE) 08:01:16 437.490
PHONESAT 2.4 01 Oct 07:58:01 07:59:25 13° 318° (NW) 08:00:49 2401.200-2431.200
SRMSAT 01 Oct 07:58:41 08:04:09 37° 200° (SSW) 08:09:38 437.500
LilacSat-2 01 Oct 08:05:19 08:09:06 58° 282° (WNW) 08:12:57 437.200
AO-85 01 Oct 08:07:50 08:11:40 79° 70° (ENE) 08:15:32 145.980
STRAND 1 01 Oct 08:08:22 08:11:58 19° 77° (ENE) 08:15:32 437.568
GOMX 1 01 Oct 08:25:43 08:29:14 27° 281° (WNW) 08:32:50 467.674
DOVE 4 01 Oct 08:28:58 08:33:08 84° 281° (W) 08:37:31 437.250
HO-68 01 Oct 08:33:20 08:38:38 22° 105° (ESE) 08:43:55 435.675
Cosmos 2499 01 Oct 08:34:58 08:40:36 23° 95° (E) 08:45:58 435.465 / 435.565
CUTE 1.7 + AOD 2 01 Oct 08:36:50 08:38:28 12° 102° (ESE) 08:40:05 437.475
CANX-2 01 Oct 08:37:52 08:40:25 16° 102° (ESE) 08:42:58 2200.000
CUSAT 1 01 Oct 08:50:22 08:52:58 14° 272° (W) 08:55:19 437.405
JUGNU 01 Oct 08:50:41 08:52:00 11° 186° (S) 08:53:18 437.505
NOAA 18 01 Oct 09:00:21 09:04:50 26° 283° (WNW) 09:09:22 137.9125
NOAA 15 01 Oct 09:04:54 09:07:04 13° 283° (WNW) 09:09:15 137.62
DANDE 01 Oct 09:08:35 09:15:15 39° 269° (W) 09:20:37 436.750
GONETS M04 01 Oct 09:09:50 09:18:31 63° 93° (E) 09:27:11
CINEMA 3 01 Oct 09:15:41 09:20:04 76° 101° (ESE) 09:24:43 145.822/145.860
COMPASS 1 01 Oct 09:30:15 09:33:49 28° 102° (ESE) 09:37:23 437.405
STRAND 1 01 Oct 09:46:47 09:50:51 25° 257° (WSW) 09:54:55 437.568
SRMSAT 01 Oct 09:50:05 09:53:48 17° 193° (SSW) 09:57:32 437.500
FUNcube-1 01 Oct 09:50:53 09:52:39 12° 102° (ESE) 09:54:25 145.935
RS-15 01 Oct 09:56:19 10:00:52 13° 247° (WSW) 10:05:22 29.354- 29.394
CUBEBUG 2 01 Oct 09:59:57 10:04:25 59° 102° (ESE) 10:09:01 437.445
SEEDS 01 Oct 10:04:51 10:08:57 50° 281° (WNW) 10:13:03 437.485
CUTE 1.7 + AOD 2 01 Oct 10:10:27 10:14:01 26° 282° (WNW) 10:17:36 437.475
UWE-3 01 Oct 10:10:49 10:15:10 48° 102° (ESE) 10:19:39 435.000/436.395/437.385
CANX-2 01 Oct 10:12:48 10:16:00 21° 282° (WNW) 10:19:11 2200.000
AAUSAT CUBESAT 2 01 Oct 10:17:09 10:21:18 77° 280° (W) 10:25:27 437.432
HO-68 01 Oct 10:19:29 10:26:01 39° 284° (WNW) 10:32:35 435.675
Oscar 11 01 Oct 10:23:57 10:27:57 36° 102° (ESE) 10:31:58 145.826/435.025
PRISM 01 Oct 10:24:21 10:28:28 60° 78° (ENE) 10:32:34 437.425
Cosmos 2499 01 Oct 10:26:44 10:33:23 34° 272° (W) 10:39:44 435.465 / 435.565
ZACube-1 01 Oct 10:32:12 10:36:36 53° 102° (ESE) 10:41:04 437.345
JUGNU 01 Oct 10:41:45 10:42:13 10° 175° (S) 10:42:40 437.505
ANTELSAT 01 Oct 10:57:06 10:58:15 11° 78° (ENE) 10:59:23 437.575/2403.000
DELFI C3 01 Oct 11:07:11 11:10:59 45° 101° (ESE) 11:14:47 145.870
COMPASS 1 01 Oct 11:08:10 11:09:05 11° 282° (WNW) 11:10:01 437.405
GONETS M04 01 Oct 11:10:25 11:14:56 15° 273° (W) 11:19:30
TIGRISAT 01 Oct 11:14:38 11:17:45 19° 79° (ENE) 11:20:49 435.000
FUNcube-1 01 Oct 11:24:38 11:28:34 30° 281° (WNW) 11:32:35 145.935
